sat.trackr.live / text

‹ back to catalog

STARLINK-31410

NORAD 59179 · 2024-045B

PAYLOAD ACTIVE UNKNOWN

§ Identity

Operator
Country
US
Launch date
2024-03-10
Launch site
AFETR
Launch vehicle
Mass (kg)
RCS (m²)

Purposes: comms

External: N2YO · Heavens-Above · Gunter

§ Orbital elements

Epoch: 2026-05-25T00:29:51.142848Z

Period
94.27 min
Inclination
43.0027°
Eccentricity
0.0001164
Mean motion
15.27591595 rev/d
Perigee alt
482.2 km
Apogee alt
483.8 km
Semi-major
6,861.2 km
B*
6.3943e-4
RAAN
21.6094°
Arg perigee
260.9922°
Mean anomaly
99.0798°
Rev number
12,483

§ Raw data

STARLINK-314101 59179U 24045B   26145.02073082  .00017381  00000+0  63943-3 0  99932 59179  43.0027  21.6094 0001164 260.9922  99.0798 15.27591595124832

JSON: /api/v1/satellites/59179 · /tle

For live sub-satellite position, see the globe view (requires WebGL).

§ Visibility from observer

Set your observer location to see the next 7 days of passes ≥ 10°. The values pass through the URL so the page stays shareable.

No JS? Fill the form by hand. The geolocation button needs JavaScript.